Location: Ferques
(50.8300°N, 1.7599°E)
Time: 21:27:26
(UTC+00:00)

MetOp-A - Pass Details

Date: 19 May 2025
Orbit: 521 x 774 km, 98.3° (Epoch: 18 June)

Event Time Altitude Azimuth Distance (km) Brightness Sun altitude
Exits shadow 22:10:46 24° 137° (SE) 1,539 5.0 -15.9°
Maximum altitude 22:13:41 56° 69° (ENE) 923 4.4 -16.1°
Drops below altitude 10° 22:18:45 10° 353° (N) 2,333 7.7 -16.4°
Sets 22:21:06 0° 349° (N) 3,255 8.9 -16.6°
